This demonstration page uses our WeatherBlox Daily Observations layout. Learn more.

Left ArrowRight Arrow

Hourly Observations for May 29, 2015

Temp ( °F °C ) Dew Point ( °F °C ) Humidity (%) Winds ( mph kmh ) Pressure ( in mb ) Visibility ( mi km ) Precip ( " mm )
12:58 am 00:58 Mostly Clear 66 18.9 63 17.3 90 90 SE 9 15 29.92 1013 10 16 0.00 0.00
1:58 am 01:58 Cloudy 66 19.1 64 17.5 91 91 SSE 9 15 29.91 1013 10 16 0.00 0.00
2:58 am 02:58 Mostly Cloudy 66 18.8 64 17.5 92 92 ESE 3 6 29.91 1013 10 16 0.00 0.00
3:12 am 03:12 Mostly Cloudy 64 18 63 17 94 94 E 6 9 29.88 1012 10 16 0.00 0.00
3:46 am 03:46 Mostly Cloudy 64 18 63 17 94 94 E 9 15 29.85 1011 10 16 0.00 0.00
3:58 am 03:58 Mostly Cloudy 64 18 63 17 94 94 ESE 9 15 29.88 1012 10 16 0.00 0.00
4:58 am 04:58 Mostly Clear 65 18.1 63 17 93 93 SSE 8 13 29.88 1012 10 16 0.00 0.00
5:15 am 05:15 Mostly Clear 64 18 63 17 94 94 SE 9 15 29.85 1011 10 16 0.00 0.00
5:24 am 05:24 Mostly Cloudy 64 18 63 17 94 94 SE 9 15 29.85 1011 10 16 0.00 0.00
5:53 am 05:53 Cloudy 64 18 63 17 94 94 SSE 8 13 29.85 1011 10 16 0.00 0.00
5:58 am 05:58 Cloudy 65 18.3 63 17.2 93 93 S 8 13 29.88 1012 10 16 0.00 0.00
6:21 am 06:21 Cloudy 64 18 63 17 94 94 S 8 13 29.85 1011 10 16 0.00 0.00
6:48 am 06:48 Cloudy 66 19 64 18 94 94 SSE 6 9 29.88 1012 10 16 0.00 0.00
6:58 am 06:58 Mostly Cloudy 65 18.6 64 17.5 93 93 SE 10 17 29.89 1012 10 16 0.00 0.00
7:12 am 07:12 Mostly Cloudy 66 19 64 18 94 94 SE 13 20 29.88 1012 10 16 0.00 0.00
7:13 am 07:13 Mostly Cloudy with Light Rain 66 19 64 18 94 94 SE 10 17 29.88 1012 10 16 0.00 0.00
7:19 am 07:19 Mostly Cloudy with Light Rain 66 19 64 18 94 94 SE 9 15 29.88 1012 10 16 0.00 0.00
7:30 am 07:30 Mostly Cloudy with Light Rain 66 19 64 18 94 94 SE 7 11 29.88 1012 9 14 0.00 0.00
7:46 am 07:46 Partly Cloudy 66 19 64 18 94 94 SE 8 13 29.88 1012 10 16 0.00 0.00
7:58 am 07:58 Mostly Sunny 65 18.6 64 17.6 94 94 SE 8 13 29.90 1012 10 16 0.01 0.25
8:58 am 08:58 Mostly Sunny 67 19.5 65 18.4 93 93 VRB 3 6 29.92 1013 10 16 0.00 0.00
8:59 am 08:59 Mostly Sunny 68 20 64 18 88 88 VRB 3 6 29.88 1012 10 16 0.00 0.00
9:11 am 09:11 Mostly Cloudy 68 20 64 18 88 88 VRB 3 6 29.91 1013 10 16 0.00 0.00
9:32 am 09:32 Cloudy 68 20 66 19 94 94 VRB 5 7 29.88 1012 10 16 0.00 0.00
9:58 am 09:58 Mostly Cloudy 69 20.6 65 18.5 88 88 SSW 6 9 29.91 1013 10 16 0.00 0.00
10:21 am 10:21 Mostly Cloudy 70 21 64 18 83 83 SW 6 9 29.88 1012 10 16 0.00 0.00
10:58 am 10:58 Partly Cloudy 72 22.1 63 17.3 74 74 SW 9 15 29.92 1013 10 16 0.00 0.00
11:58 am 11:58 Mostly Sunny 74 23.1 60 15.7 63 63 SW 12 19 29.91 1013 10 16 0.00 0.00
12:58 pm 12:58 Mostly Cloudy 74 23.6 60 15.6 61 61 SSW 12 19 29.91 1013 10 16 0.00 0.00
1:58 pm 13:58 Partly Cloudy 76 24.2 60 15.7 59 59 SSW 10 17 29.90 1013 10 16 0.00 0.00
2:58 pm 14:58 Mostly Sunny 75 24.1 61 16.3 62 62 SSW 10 17 29.90 1013 10 16 0.00 0.00
3:58 pm 15:58 Mostly Sunny 77 24.8 61 16 58 58 S 9 15 29.89 1012 10 16 0.00 0.00
4:58 pm 16:58 Mostly Sunny 78 25.3 62 16.4 58 58 SSW 10 17 29.88 1012 10 16 0.00 0.00
5:58 pm 17:58 Sunny 78 25.5 61 16.2 56 56 SW 9 15 29.87 1012 10 16 0.00 0.00
6:58 pm 18:58 Sunny 77 24.8 61 16.3 59 59 SSW 8 13 29.86 1011 10 16 0.00 0.00
7:11 pm 19:11 Mostly Cloudy with Thunderstorms 77 25 61 16 57 57 SW 7 11 29.83 1010 10 16 0.00 0.00
7:26 pm 19:26 Mostly Cloudy with Thunderstorms 75 24 63 17 65 65 WNW 16 26 29.83 1010 10 16 0.00 0.00
7:32 pm 19:32 Windy with Storms Likely 73 23 63 17 69 69 WNW 20 31 29.83 1010 10 16 0.00 0.00
7:41 pm 19:41 Mostly Cloudy with Thunderstorms 70 21 64 18 83 83 W 16 26 29.88 1012 4 6 0.00 0.00
7:43 pm 19:43 Mostly Cloudy with Strong Thunderstorms 68 20 64 18 88 88 W 14 22 29.88 1012 4 6 0.00 0.00
7:47 pm 19:47 Mostly Cloudy with Thunderstorms 66 19 64 18 94 94 W 9 15 29.88 1012 N/A 0.00 0.00
7:52 pm 19:52 Cloudy with Thunderstorms 66 19 63 17 88 88 WNW 8 13 29.88 1012 5 8 0.00 0.00
7:58 pm 19:58 Mostly Cloudy with Thunderstorms 66 19 63 17 88 88 NW 12 19 29.92 1013 5 8 0.17 4.32
8:14 pm 20:14 Mostly Sunny 68 20 64 18 88 88 NNW 13 20 29.91 1013 10 16 0.00 0.00
8:47 pm 20:47 Mostly Cloudy 66 19 63 17 88 88 NNW 14 22 29.94 1014 10 16 0.00 0.00
8:58 pm 20:58 Mostly Cloudy 65 18.6 62 16.4 87 87 NNW 21 33 29.96 1014 10 16 0.00 0.03
9:01 pm 21:01 Mostly Cloudy 64 18 61 16 88 88 NNW 18 30 29.94 1014 10 16 0.00 0.00
9:58 pm 21:58 Cloudy 60 15.8 57 13.9 89 89 NNW 21 33 30.01 1016 10 16 0.00 0.00
10:58 pm 22:58 Cloudy 58 14.6 54 12.3 86 86 N 15 24 30.04 1017 10 16 0.00 0.00
11:58 pm 23:58 Cloudy 56 13.6 52 11.3 86 86 N 16 26 30.05 1018 10 16 0.00 0.00

Powered by AerisWeather